Kalamazoo, MI

12:21 AM EST on January 20, 2018 (GMT -0500)
Kalamazoo-Battle Creek International

Weather History for KAZO - October, 2012

Change the Weather History Date:

Wednesday, October 31, 2012

  Actual Average Record
Temperature  
Mean Temperature 40 °F 46 °F  
Max Temperature 42 °F 55 °F 81 °F (1950)
Min Temperature 37 °F 38 °F 21 °F (1988)
Degree Days  
Heating Degree Days 25 19  
Month to date heating degree days 463 443  
Since 1 July heating degree days 618 592  
Cooling Degree Days 0 0  
Month to date cooling degree days 3 8  
Year to date cooling degree days 1051 675  
Moisture  
Dew Point 36 °F    
Average Humidity 84    
Maximum Humidity 92    
Minimum Humidity 76    
Precipitation  
Precipitation 0.01 in 0.09 in 1.80 in (2013)
Month to date precipitation 4.79 3.33  
Year to date precipitation 25.32 30.74  
Sea Level Pressure  
Sea Level Pressure 29.71 in    
Wind  
Wind Speed 14 mph (NW)    
Max Wind Speed 20 mph    
Max Gust Speed 28 mph    
Visibility 9 miles    
Events Rain    
T = Trace of Precipitation, MM = Missing Value Source: NWS Daily Summary

Daily Weather History Graph

Daily Weather History Graph

Search for Another Location

Airport or City:

Trip Planner

Search our weather history database for the weather conditions in past years. The results will help you decide how hot, cold, wet, or windy it might be!

Date:

Astronomy

Oct. 31, 2012 Rise Set
Actual Time 8:14 AM EDT 6:36 PM EDT
Civil Twilight 7:45 AM EDT 7:05 PM EDT
Nautical Twilight 7:12 AM EDT 7:38 PM EDT
Astronomical Twilight 6:39 AM EDT 8:11 PM EDT
Moon 7:44 PM EDT (10/31) 9:57 AM EDT (10/31)
Length of Visible Light 11h 19m
Length of Day
10h 21m
Full, 97% of the Moon is Illuminated
Oct 31
Full
Nov 6
Last Quarter
Nov 13
New
Nov 20
First Quarter
Nov 28
Full

Hourly Weather History & Observations

Time (EDT) Temp. Windchill Dew Point Humidity Pressure Visibility Wind Dir Wind Speed Gust Speed Precip Events Conditions
5:53 AM 37.4 °F 29.8 °F 35.6 °F 93% 29.64 in 10.0 mi NW 11.5 mph - N/A Rain Light Rain
6:53 AM 37.4 °F 29.3 °F 35.6 °F 93% 29.65 in 10.0 mi NW 12.7 mph - N/A Rain Light Rain
7:53 AM 37.4 °F 29.8 °F 35.6 °F 93% 29.65 in 10.0 mi NW 11.5 mph - N/A Rain Light Rain
8:53 AM 37.4 °F 30.3 °F 35.6 °F 93% 29.67 in 10.0 mi NW 10.4 mph - N/A   Overcast
9:53 AM 37.9 °F 28.9 °F 36.0 °F 93% 29.69 in 8.0 mi NW 16.1 mph - N/A   Overcast
10:53 AM 39.0 °F 31.0 °F 36.0 °F 89% 29.69 in 10.0 mi NW 13.8 mph 24.2 mph 0.00 in Rain Light Rain
11:53 AM 39.9 °F 32.1 °F 37.0 °F 89% 29.70 in 10.0 mi NW 13.8 mph 21.9 mph 0.00 in   Overcast
12:48 PM 41.0 °F 33.9 °F 35.6 °F 81% 29.67 in 10.0 mi NW 12.7 mph - N/A   Overcast
12:53 PM 41.0 °F 33.5 °F 36.0 °F 82% 29.69 in 10.0 mi NNW 13.8 mph - N/A   Overcast
1:53 PM 42.1 °F 35.2 °F 36.0 °F 79% 29.69 in 10.0 mi NW 12.7 mph - N/A   Overcast
2:53 PM 42.8 °F 35.8 °F 37.4 °F 81% 29.67 in 7.0 mi NW 13.8 mph - N/A   Mostly Cloudy
3:53 PM 41.0 °F 34.3 °F 37.0 °F 86% 29.70 in 5.0 mi NW 11.5 mph - 0.00 in   Overcast
4:53 PM 39.9 °F 31.4 °F 37.9 °F 93% 29.72 in 3.0 mi WNW 16.1 mph - 0.00 in Rain Light Rain
5:53 PM 39.9 °F 32.1 °F 37.0 °F 89% 29.73 in 8.0 mi NW 13.8 mph 27.6 mph 0.00 in   Overcast
6:53 PM 39.9 °F 31.8 °F 37.0 °F 89% 29.75 in 10.0 mi NW 15.0 mph - 0.00 in Rain Light Rain
7:53 PM 39.9 °F 31.8 °F 37.0 °F 89% 29.76 in 8.0 mi NW 15.0 mph 21.9 mph 0.01 in Rain Light Rain
8:53 PM 39.9 °F 30.2 °F 37.0 °F 89% 29.78 in 10.0 mi NW 20.7 mph 25.3 mph 0.00 in   Overcast
9:53 PM 41.0 °F 32.5 °F 37.0 °F 86% 29.77 in 10.0 mi NW 17.3 mph 25.3 mph N/A   Overcast
10:26 PM 42.8 °F 35.8 °F 35.6 °F 76% 29.75 in 10.0 mi NNW 13.8 mph 24.2 mph N/A   Overcast
10:38 PM 42.8 °F 35.1 °F 35.6 °F 76% 29.75 in 10.0 mi NW 16.1 mph 21.9 mph N/A   Overcast
10:53 PM 42.8 °F 37.0 °F 35.6 °F 76% 29.75 in 10.0 mi NW 10.4 mph - N/A   Overcast
11:01 PM 42.8 °F 35.4 °F 35.6 °F 76% 29.75 in 10.0 mi NNW 15.0 mph 21.9 mph N/A   Overcast
11:29 PM 42.8 °F 36.2 °F 35.6 °F 76% 29.75 in 10.0 mi NW 12.7 mph - N/A   Overcast
11:53 PM 42.1 °F 34.5 °F 35.1 °F 76% 29.77 in 10.0 mi NW 15.0 mph 25.3 mph N/A   Overcast